Theta_e
294 298 296 293 293 293 294 295 296 295 293 294 295 296 298 296 296 296 295 295 294 294 293 292 292 291 290 290 289 290 290 289 290 293 295 297 299 301 302 303 316 321 323 327
297 294 291 292 293 293 294 296 296 295 293 294 296 296 298 297 296 295 295 294 294 293 292 292 291 291 291 290 289 289 289 289 288 288 292 292 295 298 299 301 303 311 322 323
297 291 290 291 293 294 293 293 293 293 294 295 296 299 297 298 297 296 295 294 293 292 291 291 291 290 290 290 289 289 289 289 288 288 289 292 295 296 298 300 301 303 307 320
292 290 290 292 292 292 295 291 291 293 296 300 296 301 298 299 298 297 295 293 292 291 291 291 290 290 290 289 289 288 288 288 289 289 289 289 291 293 296 297 299 301 302 304
292 291 291 292 290 290 293 291 292 294 296 296 298 298 300 298 297 297 294 293 292 291 290 290 290 289 289 288 288 288 288 288 289 289 288 288 291 292 294 296 298 300 301 303
290 289 290 290 290 290 290 293 293 295 296 302 297 295 301 300 299 296 294 293 291 291 290 290 289 289 288 288 288 288 288 288 289 289 289 287 286 290 292 296 297 299 300 302
291 291 289 289 292 291 293 295 304 304 304 305 296 294 300 299 296 295 293 292 291 290 290 289 289 289 288 287 287 287 288 288 288 289 288 288 286 288 289 291 293 296 300 300
298 299 290 289 290 291 291 293 301 302 301 299 294 295 300 297 295 293 292 291 291 290 290 289 289 288 288 287 287 287 288 287 287 288 288 288 289 288 288 289 290 292 295 299
296 293 288 288 289 290 292 295 290 295 290 292 298 298 297 296 294 293 292 291 291 290 289 289 289 288 287 286 285 285 285 286 287 287 287 288 288 288 288 289 289 290 292 295
290 297 288 289 288 288 290 291 294 293 299 300 299 297 299 296 295 295 293 291 291 290 289 289 288 288 287 286 285 284 284 284 284 285 286 286 287 287 288 288 289 289 291 293
289 291 290 288 289 291 288 290 290 291 292 298 298 299 301 298 297 296 293 291 290 290 289 289 289 288 287 286 285 285 284 284 284 284 284 284 286 287 287 287 288 289 288 291
289 291 295 293 288 287 289 291 292 294 294 292 292 294 295 293 294 293 292 290 289 289 289 288 288 288 287 286 285 285 285 285 284 283 283 283 283 284 287 287 287 288 288 289
289 292 298 293 288 287 287 288 289 289 288 291 294 297 292 291 292 291 291 290 290 289 288 288 288 287 287 286 285 285 285 285 285 284 283 283 282 282 283 285 287 287 288 287
288 289 292 300 293 290 288 288 288 289 291 292 292 294 295 294 293 293 292 291 290 289 288 288 288 287 287 286 285 285 284 285 284 284 283 283 283 282 281 281 282 285 287 287
289 289 287 288 289 289 288 289 289 289 289 292 294 294 295 295 293 291 291 290 289 288 288 288 288 287 287 287 285 285 284 284 284 283 283 283 283 282 282 281 281 281 283 286
287 290 282 285 288 288 288 288 288 289 289 289 290 290 291 291 291 290 290 289 289 288 288 288 288 287 286 285 285 285 284 284 283 283 283 282 282 282 282 282 282 281 281 280
286 288 286 292 285 286 289 287 288 288 288 289 290 291 293 292 291 290 290 289 288 287 287 287 287 287 286 285 285 285 284 284 283 283 282 282 282 282 282 281 281 281 281 281
287 287 288 290 285 293 294 288 288 289 290 290 289 290 290 290 289 288 288 287 287 287 287 287 287 286 286 285 285 284 284 284 283 283 282 282 282 282 282 281 281 281 281 281
286 287 289 289 291 292 292 288 287 287 290 290 290 290 290 290 288 287 288 287 287 286 286 286 286 286 285 285 285 284 284 284 283 282 281 281 281 281 281 281 281 280 280 281
287 287 288 282 288 293 291 286 285 285 290 292 290 290 290 289 288 290 289 287 286 286 285 285 285 285 285 284 284 284 284 283 283 281 281 281 280 280 280 280 280 280 278 278
286 287 287 288 288 289 289 285 284 290 293 288 288 289 289 289 288 288 287 286 285 285 285 285 284 284 284 284 284 284 283 283 282 281 280 280 280 279 279 278 278 278 278 278
287 287 287 287 288 288 288 285 287 292 288 287 287 287 287 287 286 286 286 285 285 285 284 284 283 283 283 283 283 283 282 282 281 280 280 280 279 278 277 276 276 276 276 276
287 290 290 290 290 288 287 289 287 287 286 287 286 286 286 286 286 286 285 285 285 285 284 284 283 282 282 283 283 282 281 281 280 279 279 278 278 276 276 275 275 274 274 274
285 287 287 287 290 287 286 286 286 286 286 286 286 286 286 286 286 285 285 285 284 284 284 284 282 282 282 282 282 281 281 280 278 278 278 276 275 275 274 273 273 272 272 272
290 286 287 287 288 288 288 288 288 288 288 287 287 286 286 286 285 285 285 284 284 283 283 283 282 282 282 281 281 280 279 278 278 276 275 274 274 273 272 272 272 271 271 270
288 288 288 290 290 291 291 290 289 288 287 287 287 286 285 285 285 285 284 284 283 283 282 282 281 281 281 280 280 279 278 277 275 274 273 272 272 271 271 271 271 271 271 271
Wind_Speed
8 10 9 10 9 7 4 1 3 2 3 7 1 4 6 1 6 11 14 17 19 21 21 21 22 24 26 28 31 32 33 32 32 29 30 30 30 27 26 25 28 31 31 27
6 8 5 4 5 2 2 2 4 3 2 5 3 8 9 9 2 5 10 15 19 22 25 25 25 26 26 27 30 34 33 32 31 28 29 27 29 32 30 28 26 32 33 35
6 5 1 2 8 1 5 7 5 3 8 5 9 8 13 12 10 4 7 11 15 20 23 25 26 26 26 27 29 31 34 33 30 29 29 30 30 29 31 31 32 28 32 38
8 3 1 2 5 6 2 7 6 5 5 2 4 1 11 11 8 5 6 11 15 18 19 20 22 24 25 26 26 28 31 33 33 31 32 32 32 35 36 39 40 38 31 32
4 3 4 2 2 5 4 8 3 3 4 4 5 4 8 7 8 5 4 8 12 14 16 18 20 21 22 24 25 27 29 31 34 34 30 31 32 31 34 36 40 41 38 33
5 1 2 4 6 3 8 2 3 2 2 3 6 3 8 8 5 5 3 7 11 13 15 16 18 18 20 22 25 27 29 31 34 36 33 30 31 34 35 34 36 40 41 38
3 2 1 4 3 3 5 2 1 2 2 2 5 5 7 6 7 5 4 7 9 10 12 14 16 19 19 21 25 27 30 31 32 34 35 33 31 34 35 35 36 37 39 40
4 4 2 3 4 3 4 3 3 4 3 4 5 6 3 5 9 8 7 7 8 9 11 12 14 15 17 21 21 25 29 30 30 33 34 34 35 35 36 36 35 35 35 36
3 2 3 3 2 3 2 1 2 1 2 2 4 5 7 9 10 12 10 9 8 9 10 12 13 13 15 18 21 23 25 27 29 31 31 33 36 36 37 36 35 36 34 33
2 2 2 4 1 2 3 4 2 3 3 5 5 5 10 11 13 12 13 11 9 11 13 13 13 13 15 18 19 21 22 25 28 30 30 30 32 35 36 36 36 36 36 33
2 1 4 0 7 5 4 3 2 2 2 3 5 4 3 3 7 9 10 8 8 14 16 18 16 14 15 16 19 21 23 25 27 29 31 31 31 33 35 37 36 37 37 35
3 0 3 2 4 2 3 4 6 3 4 4 3 9 1 1 3 4 9 11 14 18 18 19 17 16 15 16 19 21 23 25 26 28 29 30 32 33 33 34 37 36 36 35
6 2 2 3 2 2 5 9 9 2 2 10 4 6 4 5 5 8 12 16 20 20 20 18 17 16 16 17 20 22 23 25 26 28 29 28 30 32 33 33 34 35 35 35
4 2 6 6 3 2 4 9 15 10 5 7 15 21 16 16 12 14 17 21 22 20 18 18 18 17 16 19 21 22 23 24 26 27 27 27 28 30 31 32 33 34 35 35
3 4 3 11 12 12 10 8 15 21 21 10 17 18 19 15 17 27 27 22 18 18 18 18 19 19 17 18 21 23 24 24 24 25 26 26 27 27 29 30 31 32 33 35
4 1 1 5 10 10 15 16 21 24 23 24 30 31 29 34 25 13 15 16 15 17 19 19 20 20 21 21 23 25 26 24 23 23 24 26 27 28 28 30 31 31 31 31
7 4 1 4 1 10 11 21 20 15 11 18 20 23 17 16 18 16 17 15 15 17 21 22 21 21 21 22 24 27 26 25 23 23 23 24 27 29 31 30 30 31 31 31
7 5 3 4 2 6 1 3 3 20 13 21 16 18 18 20 21 21 21 16 15 18 22 25 27 19 19 21 25 26 26 25 24 23 23 24 26 29 31 33 31 29 31 32
10 7 4 4 5 13 12 4 6 7 7 19 20 19 26 22 9 17 17 11 13 20 26 31 24 21 26 26 23 25 25 25 25 24 24 25 26 28 31 33 34 32 31 31
10 10 7 3 5 7 5 5 7 4 8 5 12 13 13 6 8 10 9 15 29 35 33 24 23 28 31 30 28 28 27 26 26 24 24 26 28 30 31 32 35 36 36 34
7 9 17 12 8 10 8 10 7 4 3 5 4 6 9 10 18 24 21 27 28 23 23 24 26 27 29 29 27 27 25 26 25 25 25 26 28 31 32 33 33 37 38 37
11 11 7 9 8 13 19 13 7 1 2 2 9 13 19 22 24 25 27 25 22 22 22 26 27 28 26 26 24 24 24 25 25 25 27 29 30 32 32 35 34 33 35 35
6 8 6 12 8 2 28 11 15 18 16 17 21 23 23 25 26 28 29 28 29 30 29 28 28 26 25 24 24 23 24 24 24 25 27 29 32 33 34 34 32 30 29 30
9 12 4 0 10 19 26 31 32 35 31 30 26 27 24 29 32 32 31 29 29 28 28 28 26 24 21 19 19 19 21 22 24 27 28 29 31 32 30 29 27 26 25 25
7 13 7 13 21 26 31 31 31 29 29 28 26 26 28 31 34 32 32 30 28 24 26 26 23 20 18 16 16 18 21 23 26 28 28 29 28 27 27 25 24 23 21 21
15 10 8 13 27 19 22 18 16 23 24 30 32 34 33 30 32 30 32 32 27 28 27 23 20 18 17 16 18 21 22 24 26 27 26 25 24 23 22 22 23 20 20 19
Wind_Direction
30 75 61 38 35 46 57 330 336 73 82 329 140 254 220 293 5 8 2 358 357 357 354 355 358 358 359 359 358 357 351 347 343 340 332 321 314 305 297 282 257 246 247 255
94 72 44 34 31 78 29 301 33 196 177 302 222 269 211 213 249 353 352 350 349 347 348 349 353 356 358 356 357 358 356 351 348 340 338 330 321 312 305 301 284 253 246 246
73 85 28 8 44 84 52 23 347 306 310 236 285 232 195 208 222 262 344 348 349 349 347 348 349 352 353 355 355 356 357 355 350 344 339 334 329 320 312 299 292 285 260 251
74 88 106 119 74 340 182 3 308 279 298 316 345 338 195 198 213 218 336 354 349 348 349 349 350 349 353 351 352 354 356 358 355 350 345 344 342 334 327 318 305 293 287 267
91 74 32 57 20 340 36 328 279 261 281 305 171 257 115 168 229 216 315 340 347 348 348 349 351 351 350 350 352 353 354 358 360 356 349 346 341 336 332 326 317 305 290 282
88 85 348 350 302 254 300 311 195 236 296 257 117 348 186 186 196 194 264 325 339 344 348 349 350 351 350 351 353 355 356 359 1 0 355 349 346 343 340 334 325 316 307 294
160 141 94 354 305 198 323 290 206 218 229 294 135 286 282 168 179 202 256 308 326 334 338 341 345 348 350 352 355 358 358 359 359 1 1 355 351 351 348 344 335 324 314 308
203 209 180 19 36 344 10 353 347 281 271 340 154 236 242 169 184 204 238 275 302 314 325 331 337 341 344 348 352 354 357 357 357 359 1 1 357 356 354 351 345 335 323 311
167 169 125 55 45 322 47 178 49 300 101 287 233 235 229 188 204 219 237 253 284 295 308 319 323 329 335 340 344 349 351 354 356 356 357 360 0 358 357 356 354 348 336 323
114 207 220 116 202 102 304 125 200 166 272 272 221 268 258 202 216 217 221 237 271 295 302 307 312 316 323 331 336 339 344 348 352 354 356 357 359 0 358 356 357 358 351 337
143 267 120 300 199 182 159 195 202 318 253 275 297 258 41 238 210 214 229 241 277 303 302 305 303 306 312 320 327 332 335 340 344 349 352 354 356 358 360 359 357 359 3 354
158 277 225 206 115 319 319 237 203 238 180 246 300 272 55 235 242 233 263 263 285 307 298 299 292 297 304 309 319 325 328 332 337 341 345 347 350 353 358 0 0 358 2 7
174 193 243 198 197 209 229 213 216 224 287 229 230 257 137 153 214 257 270 278 286 302 296 292 285 286 290 302 315 320 322 325 329 333 337 341 345 347 352 356 360 1 357 5
163 240 254 269 41 76 206 208 207 196 215 246 227 270 269 281 280 284 293 299 299 296 293 287 284 283 283 292 308 315 317 319 322 326 331 335 338 342 346 349 352 358 1 356
201 248 223 274 273 256 244 229 209 214 221 243 270 275 280 289 306 301 297 294 294 296 296 287 285 280 279 282 297 304 309 311 315 319 325 330 334 337 339 343 347 351 354 357
159 243 67 266 267 269 262 250 237 236 241 253 261 274 269 279 284 297 295 293 293 299 299 293 284 280 277 289 294 295 300 304 307 312 319 325 328 332 335 336 338 342 347 351
170 208 185 270 99 310 274 236 223 215 219 228 246 252 284 284 287 295 289 291 290 302 304 298 286 279 279 291 294 291 291 297 301 305 313 319 323 326 329 331 331 333 337 342
169 176 204 282 281 247 1 171 166 210 229 223 248 262 271 277 292 288 283 276 283 300 308 306 288 269 278 290 290 297 291 291 294 299 306 312 318 322 324 325 327 327 328 333
180 189 243 253 235 304 279 169 180 184 257 237 243 256 268 286 296 280 282 261 287 301 305 300 280 271 291 301 294 290 287 283 285 292 299 307 313 317 321 321 322 325 325 325
230 219 211 147 248 255 69 140 141 164 274 189 208 236 263 267 269 285 290 293 300 300 304 294 283 285 292 295 294 286 281 277 282 288 295 303 310 315 318 319 318 319 321 321
179 207 221 229 250 276 259 154 161 192 301 148 174 244 258 253 265 289 290 291 289 299 295 297 288 285 283 287 285 283 276 275 280 286 293 301 307 312 315 315 315 315 316 316
177 178 193 208 230 261 187 149 213 73 192 210 296 285 286 283 285 284 289 284 282 287 287 301 294 293 293 287 283 281 274 274 279 286 295 301 305 310 312 312 314 313 312 314
219 210 189 202 213 79 182 214 234 269 275 284 295 293 291 290 287 287 286 284 275 291 286 298 294 291 288 285 283 277 272 275 279 286 293 299 304 308 310 311 312 313 312 312
224 223 251 323 226 240 238 247 261 272 272 285 283 282 286 287 289 288 285 280 280 284 288 295 293 290 286 282 277 272 274 277 284 290 295 301 304 307 308 310 312 312 313 311
228 153 214 253 271 272 273 268 272 274 275 278 281 283 289 287 284 281 282 283 280 273 283 289 285 280 278 278 278 277 278 284 289 294 300 303 305 307 309 310 312 312 312 310
207 215 219 250 261 263 280 292 293 290 286 285 287 288 286 284 283 280 278 282 272 275 284 279 274 270 273 277 280 281 285 289 293 298 301 303 305 307 309 310 312 314 315 315